| time (UTC) | temp F | wind direction | speed MPH | gust MPH | rain 1hr in | rain 24hr in | rain mn in | humidity % | barometer mb |
| 20260902181659 | 96 | 210 | 4.0 | 7.0 | 0.00 | 0.00 | 0.00 | 44 | 1015.1 |
| 20260902180659 | 96 | 213 | 2.0 | 10.0 | 0.00 | 0.00 | 0.00 | 44 | 1015.1 |
| 20260902175702 | 94 | 185 | 3.0 | 8.0 | 0.00 | 0.00 | 0.00 | 45 | 1015.2 |
| 20260902174700 | 94 | 277 | 0.0 | 6.0 | 0.00 | 0.00 | 0.00 | 46 | 1015.3 |
| 20260902173659 | 94 | 198 | 4.0 | 6.0 | 0.00 | 0.00 | 0.00 | 46 | 1015.2 |
| 20260902172659 | 93 | 352 | 2.0 | 7.0 | 0.00 | 0.00 | 0.00 | 48 | 1015.2 |
| 20260902171659 | 93 | 208 | 2.0 | 6.0 | 0.00 | 0.00 | 0.00 | 48 | 1015.3 |
| 20260902170700 | 93 | 200 | 2.0 | 10.0 | 0.00 | 0.00 | 0.00 | 47 | 1015.3 |
| 20260902165658 | 91 | 232 | 3.0 | 6.0 | 0.00 | 0.00 | 0.00 | 53 | 1015.5 |
| 20260902164659 | 92 | 145 | 2.0 | 6.0 | 0.00 | 0.00 | 0.00 | 52 | 1015.5 |
| 20260902163659 | 90 | 198 | 1.0 | 9.0 | 0.00 | 0.00 | 0.00 | 56 | 1015.5 |
| 20260902161659 | 89 | 230 | 4.0 | 6.0 | 0.00 | 0.00 | 0.00 | 59 | 1015.4 |
| 20260902160702 | 91 | 150 | 2.0 | 4.0 | 0.00 | 0.00 | 0.00 | 57 | 1015.2 |
| 20260902155659 | 89 | 260 | 4.0 | 6.0 | 0.00 | 0.00 | 0.00 | 59 | 1015.1 |
| 20260902154659 | 90 | 185 | 0.0 | 5.0 | 0.00 | 0.00 | 0.00 | 59 | 1015.0 |
| 20260902153658 | 89 | 147 | 2.0 | 4.0 | 0.00 | 0.00 | 0.00 | 60 | 1015.2 |
| 20260902152659 | 89 | 142 | 2.0 | 3.0 | 0.00 | 0.00 | 0.00 | 60 | 1015.2 |
| 20260902151700 | 89 | 199 | 1.0 | 3.0 | 0.00 | 0.00 | 0.00 | 59 | 1015.1 |
| 20260902150659 | 87 | 180 | 2.0 | 3.0 | 0.00 | 0.00 | 0.00 | 63 | 1015.1 |
| 20260902145700 | 85 | 237 | 2.0 | 3.0 | 0.00 | 0.00 | 0.00 | 66 | 1014.9 |
| 20260902144659 | 83 | 191 | 2.0 | 3.0 | 0.00 | 0.00 | 0.00 | 69 | 1015.0 |
| 20260902143702 | 83 | 167 | 2.0 | 4.0 | 0.00 | 0.00 | 0.00 | 71 | 1014.6 |
| 20260902142659 | 82 | 165 | 2.0 | 3.0 | 0.00 | 0.00 | 0.00 | 72 | 1015.0 |
| 20260902141659 | 82 | 205 | 0.0 | 2.0 | 0.00 | 0.00 | 0.00 | 73 | 1014.8 |
| 20260902135659 | 80 | 234 | 0.0 | 2.0 | 0.00 | 0.00 | 0.00 | 74 | 1014.6 |
| 20260902134700 | 80 | 269 | 0.0 | 2.0 | 0.00 | 0.00 | 0.00 | 75 | 1014.4 |
| 20260902132659 | 79 | 221 | 1.0 | 3.0 | 0.00 | 0.00 | 0.00 | 75 | 1014.1 |
| 20260902131659 | 78 | 196 | 1.0 | 3.0 | 0.00 | 0.00 | 0.00 | 75 | 1014.3 |
| 20260902130659 | 78 | 251 | 1.0 | 2.0 | 0.00 | 0.00 | 0.00 | 75 | 1013.9 |
| 20260902125659 | 78 | 198 | 1.0 | 3.0 | 0.00 | 0.00 | 0.00 | 74 | 1013.9 |
| 20260902124702 | 78 | 192 | 1.0 | 2.0 | 0.00 | 0.00 | 0.00 | 74 | 1014.1 |
| 20260902123659 | 79 | 223 | 0.0 | 2.0 | 0.00 | 0.00 | 0.00 | 74 | 1013.8 |
| 20260902122659 | 79 | 160 | 1.0 | 2.0 | 0.00 | 0.00 | 0.00 | 74 | 1013.8 |
| 20260902121700 | 79 | 201 | 1.0 | 3.0 | 0.00 | 0.00 | 0.00 | 73 | 1013.8 |
| 20260902120659 | 79 | 197 | 2.0 | 3.0 | 0.00 | 0.00 | 0.00 | 73 | 1013.6 |
| 20260902114659 | 79 | 198 | 1.0 | 2.0 | 0.00 | 0.00 | 0.00 | 73 | 1013.6 |
| 20260902113700 | 79 | 317 | 0.0 | 2.0 | 0.00 | 0.00 | 0.00 | 73 | 1013.4 |
| 20260902112659 | 79 | 195 | 1.0 | 3.0 | 0.00 | 0.00 | 0.00 | 73 | 1013.4 |
| 20260902111659 | 79 | 171 | 2.0 | 3.0 | 0.00 | 0.00 | 0.00 | 73 | 1013.2 |
| 20260902110659 | 80 | 249 | 0.0 | 2.0 | 0.00 | 0.00 | 0.00 | 73 | 1013.2 |
| 20260902105701 | 80 | 204 | 0.0 | 2.0 | 0.00 | 0.00 | 0.00 | 73 | 1013.4 |
| 20260902103659 | 80 | 218 | 1.0 | 2.0 | 0.00 | 0.00 | 0.00 | 74 | 1013.6 |
| 20260902102659 | 80 | 227 | 1.0 | 2.0 | 0.00 | 0.00 | 0.00 | 74 | 1013.4 |
| 20260902101659 | 80 | 163 | 0.0 | 3.0 | 0.00 | 0.00 | 0.00 | 72 | 1013.4 |
| 20260902100659 | 80 | 206 | 0.0 | 2.0 | 0.00 | 0.00 | 0.00 | 72 | 1013.5 |
| 20260902094659 | 80 | 191 | 0.0 | 2.0 | 0.00 | 0.00 | 0.00 | 72 | 1013.2 |
| 20260902093659 | 80 | 300 | 2.0 | 2.0 | 0.00 | 0.00 | 0.00 | 73 | 1013.2 |
| 20260902092659 | 80 | 154 | 0.0 | 2.0 | 0.00 | 0.00 | 0.00 | 72 | 1013.3 |
| 20260902091659 | 81 | 225 | 1.0 | 2.0 | 0.00 | 0.00 | 0.00 | 71 | 1013.4 |
| 20260902090700 | 81 | 202 | 1.0 | 2.0 | 0.00 | 0.00 | 0.00 | 71 | 1013.3 |
| 20260902085659 | 81 | 228 | 1.0 | 2.0 | 0.00 | 0.00 | 0.00 | 71 | 1013.4 |
| 20260902084659 | 81 | 228 | 1.0 | 2.0 | 0.00 | 0.00 | 0.00 | 72 | 1013.2 |
| 20260902083700 | 81 | 228 | 0.0 | 2.0 | 0.00 | 0.00 | 0.00 | 72 | 1013.6 |
| 20260902082659 | 82 | 214 | 1.0 | 2.0 | 0.00 | 0.00 | 0.00 | 70 | 1013.5 |
| 20260902081658 | 82 | 193 | 1.0 | 2.0 | 0.00 | 0.00 | 0.00 | 69 | 1013.3 |
| 20260902080659 | 82 | 206 | 2.0 | 2.0 | 0.00 | 0.00 | 0.00 | 69 | 1013.2 |
| 20260902075659 | 82 | 205 | 1.0 | 3.0 | 0.00 | 0.00 | 0.00 | 68 | 1013.4 |
| 20260902074659 | 82 | 196 | 1.0 | 3.0 | 0.00 | 0.00 | 0.00 | 68 | 1013.3 |
| 20260902073659 | 82 | 226 | 1.0 | 3.0 | 0.00 | 0.00 | 0.00 | 68 | 1013.3 |
| 20260902072659 | 82 | 209 | 2.0 | 4.0 | 0.00 | 0.00 | 0.00 | 68 | 1013.3 |
| 20260902071659 | 83 | 209 | 1.0 | 3.0 | 0.00 | 0.00 | 0.00 | 66 | 1013.3 |
| 20260902070659 | 83 | 225 | 2.0 | 3.0 | 0.00 | 0.00 | 0.00 | 64 | 1013.2 |
| 20260902065659 | 84 | 211 | 1.0 | 3.0 | 0.00 | 0.00 | 0.00 | 65 | 1013.0 |
| 20260902064700 | 84 | 225 | 2.0 | 3.0 | 0.00 | 0.00 | 0.00 | 64 | 1013.1 |
| 20260902063659 | 84 | 227 | 1.0 | 3.0 | 0.00 | 0.00 | 0.00 | 63 | 1013.0 |
| 20260902060659 | 85 | 200 | 2.0 | 2.0 | 0.00 | 0.00 | 0.00 | 62 | 1013.0 |
| 20260902055659 | 85 | 222 | 1.0 | 2.0 | 0.00 | 0.00 | 0.00 | 61 | 1012.9 |
| 20260902054702 | 86 | 237 | 1.0 | 2.0 | 0.00 | 0.00 | 0.00 | 61 | 1012.9 |
| 20260902053659 | 86 | 182 | 1.0 | 2.0 | 0.00 | 0.00 | 0.00 | 60 | 1012.8 |
| 20260902051659 | 87 | 184 | 1.0 | 2.0 | 0.00 | 0.00 | 0.00 | 59 | 1013.0 |
| 20260902050659 | 87 | 170 | 2.0 | 2.0 | 0.00 | 0.00 | 0.00 | 59 | 1013.2 |
| 20260902045659 | 87 | 184 | 2.0 | 2.0 | 0.00 | 0.00 | 0.00 | 60 | 1012.8 |
| 20260902043659 | 87 | 193 | 0.0 | 4.0 | 0.00 | 0.00 | 0.00 | 57 | 1012.8 |
| 20260902042659 | 87 | 161 | 2.0 | 3.0 | 0.00 | 0.00 | 0.00 | 57 | 1012.9 |
| 20260902041659 | 88 | 170 | 3.0 | 4.0 | 0.00 | 0.00 | 0.00 | 55 | 1012.6 |
| 20260902040659 | 88 | 171 | 2.0 | 3.0 | 0.00 | 0.00 | 0.00 | 55 | 1012.7 |
| 20260902035659 | 88 | 162 | 2.0 | 2.0 | 0.00 | 0.00 | 0.00 | 56 | 1012.4 |
| 20260902034659 | 89 | 228 | 0.0 | 2.0 | 0.00 | 0.00 | 0.00 | 54 | 1012.2 |
| 20260902033701 | 89 | 155 | 1.0 | 2.0 | 0.00 | 0.00 | 0.00 | 53 | 1012.1 |
| 20260902031659 | 89 | 147 | 0.0 | 2.0 | 0.00 | 0.00 | 0.00 | 53 | 1012.0 |
| 20260902030659 | 89 | 183 | 0.0 | 1.0 | 0.00 | 0.00 | 0.00 | 53 | 1011.7 |
| 20260902024659 | 91 | 174 | 0.0 | 2.0 | 0.00 | 0.00 | 0.00 | 50 | 1011.1 |
| 20260902022702 | 91 | 235 | 0.0 | 2.0 | 0.00 | 0.00 | 0.00 | 48 | 1011.2 |
| 20260902021659 | 91 | 163 | 2.0 | 2.0 | 0.00 | 0.00 | 0.00 | 47 | 1011.3 |
| 20260902015659 | 92 | 164 | 1.0 | 2.0 | 0.00 | 0.00 | 0.00 | 47 | 1011.0 |
| 20260902013659 | 93 | 170 | 1.0 | 2.0 | 0.00 | 0.00 | 0.00 | 44 | 1010.6 |
| 20260902012659 | 94 | 157 | 0.0 | 2.0 | 0.00 | 0.00 | 0.00 | 43 | 1010.7 |
| 20260902011659 | 94 | 41 | 0.0 | 3.0 | 0.00 | 0.00 | 0.00 | 42 | 1010.9 |
| 20260902010659 | 96 | 206 | 1.0 | 2.0 | 0.00 | 0.00 | 0.00 | 40 | 1010.9 |
| 20260902005659 | 98 | 157 | 0.0 | 3.0 | 0.00 | 0.00 | 0.00 | 39 | 1010.9 |
| 20260902004659 | 98 | 343 | 0.0 | 4.0 | 0.00 | 0.00 | 0.00 | 38 | 1011.3 |
| 20260902003702 | 98 | 264 | 2.0 | 4.0 | 0.00 | 0.00 | 0.00 | 38 | 1011.1 |
| 20260902002659 | 98 | 124 | 2.0 | 4.0 | 0.00 | 0.00 | 0.00 | 38 | 1011.1 |
| 20260902001659 | 98 | 268 | 4.0 | 5.0 | 0.00 | 0.00 | 0.00 | 38 | 1011.5 |
| 20260902000659 | 98 | 353 | 3.0 | 5.0 | 0.00 | 0.00 | 0.00 | 38 | 1011.6 |
| 20260901234659 | 98 | 258 | 2.0 | 5.0 | 0.00 | 0.00 | 0.00 | 39 | 1011.5 |
| 20260901232659 | 99 | 227 | 2.0 | 8.0 | 0.00 | 0.00 | 0.00 | 39 | 1011.8 |
| 20260901231659 | 99 | 129 | 0.0 | 5.0 | 0.00 | 0.00 | 0.00 | 40 | 1011.8 |
| 20260901230659 | 98 | 147 | 3.0 | 4.0 | 0.00 | 0.00 | 0.00 | 40 | 1011.8 |
| 20260901224659 | 97 | 7 | 2.0 | 8.0 | 0.00 | 0.00 | 0.00 | 42 | 1012.2 |
| 20260901223659 | 98 | 147 | 0.0 | 5.0 | 0.00 | 0.00 | 0.00 | 41 | 1012.1 |
| 20260901222659 | 99 | 337 | 3.0 | 4.0 | 0.00 | 0.00 | 0.00 | 39 | 1012.1 |
| 20260901220659 | 98 | 149 | 2.0 | 7.0 | 0.00 | 0.00 | 0.00 | 42 | 1012.5 |
| 20260901215659 | 97 | 149 | 3.0 | 5.0 | 0.00 | 0.00 | 0.00 | 44 | 1012.4 |
| 20260901213659 | 97 | 5 | 0.0 | 6.0 | 0.00 | 0.00 | 0.00 | 43 | 1012.8 |
| 20260901212659 | 98 | 190 | 2.0 | 5.0 | 0.00 | 0.00 | 0.00 | 43 | 1013.2 |
| 20260901211659 | 95 | 347 | 4.0 | 6.0 | 0.00 | 0.00 | 0.00 | 44 | 1013.2 |
| 20260901205659 | 97 | 154 | 3.0 | 4.0 | 0.00 | 0.00 | 0.00 | 43 | 1013.3 |
| 20260901204659 | 94 | 246 | 2.0 | 5.0 | 0.00 | 0.00 | 0.00 | 46 | 1014.2 |
| 20260901203659 | 94 | 129 | 3.0 | 7.0 | 0.00 | 0.00 | 0.00 | 46 | 1013.9 |
| 20260901202659 | 94 | 150 | 3.0 | 6.0 | 0.00 | 0.00 | 0.00 | 45 | 1013.9 |
| 20260901201700 | 96 | 267 | 2.0 | 6.0 | 0.00 | 0.00 | 0.00 | 45 | 1014.2 |
| 20260901200659 | 95 | 185 | 0.0 | 6.0 | 0.00 | 0.00 | 0.00 | 46 | 1014.2 |
| 20260901194700 | 94 | 124 | 2.0 | 6.0 | 0.00 | 0.00 | 0.00 | 47 | 1014.5 |
| 20260901193659 | 94 | 108 | 3.0 | 4.0 | 0.00 | 0.00 | 0.00 | 47 | 1014.4 |
| 20260901192659 | 93 | 252 | 2.0 | 4.0 | 0.00 | 0.00 | 0.00 | 48 | 1014.5 |
| 20260901191659 | 93 | 192 | 2.0 | 6.0 | 0.00 | 0.00 | 0.00 | 48 | 1014.8 |
| 20260901190659 | 93 | 160 | 4.0 | 6.0 | 0.00 | 0.00 | 0.00 | 47 | 1015.0 |
| 20260901185659 | 93 | 203 | 0.0 | 5.0 | 0.00 | 0.00 | 0.00 | 49 | 1015.1 |
| 20260901184659 | 92 | 225 | 2.0 | 6.0 | 0.00 | 0.00 | 0.00 | 49 | 1015.2 |
| 20260901183659 | 90 | 288 | 2.0 | 8.0 | 0.00 | 0.00 | 0.00 | 52 | 1015.4 |
| 20260901182659 | 90 | 152 | 3.0 | 8.0 | 0.00 | 0.01 | 0.00 | 52 | 1015.2 |